Location: Palo Alto
(37.4420°N, 122.1420°W)
Time: 13:21:36
(UTC-07:00)

X-37B - Pass Details

Date: 13 August 2020
Orbit: 386 x 387 km, 45.0° (Epoch: 18 September)

Event Time Altitude Azimuth Distance (km) Brightness Sun altitude
Rises 21:25:06 0° 294° (WNW) 2,264 6.2 -15.6°
Reaches altitude 10° 21:27:31 10° 312° (NW) 1,410 4.7 -16.0°
Maximum altitude 21:29:58 20° 3° (N) 961 2.9 -16.4°
Enters shadow 21:32:01 12° 48° (NE) 1,293 3.1 -16.8°
